Theta_e
298 300 301 302 303 303 309 309 307 307 308 310 311 312 314 313 315 319 319 319 319 321 318 316 317 318 318 321 325 317 319 317 316 325 328 322 325 317 316 315 317 319 320 320 314 323 322 310 314 318 317 316 314 314
302 305 304 305 307 308 307 306 307 308 310 311 312 314 314 313 317 319 319 319 320 321 320 317 316 317 318 320 320 317 322 319 320 323 319 318 318 312 319 323 313 318 318 319 316 318 313 311 314 315 313 313 314 314
307 307 306 307 306 306 306 307 308 310 311 312 314 315 314 313 317 318 319 318 319 319 319 320 320 317 317 318 318 320 317 318 316 317 316 318 320 317 320 320 317 314 311 316 314 315 313 312 311 311 311 312 312 313
307 306 306 306 307 308 309 310 311 313 314 315 316 316 315 313 316 317 317 317 319 320 319 320 318 318 317 318 318 318 319 317 315 313 316 313 321 312 318 316 318 315 312 315 315 314 313 313 313 312 312 313 313 314
306 307 308 309 310 312 313 314 315 317 317 316 317 316 314 313 315 318 316 318 319 318 319 320 318 318 318 318 317 317 317 316 315 315 314 322 312 314 309 312 316 312 315 317 318 314 314 314 312 312 313 313 313 313
308 308 308 309 310 310 311 314 317 318 318 317 315 315 314 314 318 315 316 317 318 318 320 323 316 316 316 316 316 315 314 314 315 318 314 311 308 315 316 319 314 312 312 312 313 312 312 313 313 311 311 308 307 307
308 308 308 308 308 308 309 313 317 318 319 317 314 313 315 317 317 315 317 317 316 317 317 317 318 317 316 316 317 317 317 316 318 314 310 311 312 314 312 320 311 308 308 310 311 312 314 307 307 304 304 302 303 300
308 308 308 308 308 308 308 310 314 317 318 318 317 316 317 317 315 315 316 315 314 313 313 318 315 316 316 314 312 315 315 316 312 309 307 310 308 311 317 309 306 305 306 310 305 308 305 303 302 301 301 301 299 298
309 309 308 308 308 309 308 308 311 314 314 314 314 314 315 316 315 315 314 313 312 312 316 315 319 318 312 310 310 311 312 313 309 313 312 312 310 315 304 302 303 302 303 304 302 302 302 301 300 299 299 298 297 297
310 309 309 309 309 309 309 309 310 309 310 310 310 310 310 314 316 314 312 311 311 312 311 306 307 311 311 310 308 311 310 312 313 311 309 313 307 300 299 299 300 301 302 303 302 300 300 299 298 297 297 296 296 296
310 311 311 309 310 310 310 309 310 310 309 309 310 313 313 311 310 310 309 311 311 312 307 306 307 309 307 313 311 307 311 310 313 312 313 313 307 300 299 299 301 302 301 301 301 299 298 298 297 296 296 296 295 295
310 310 311 311 310 310 310 310 309 309 309 311 312 311 310 310 310 309 308 308 311 310 305 308 306 307 307 309 310 307 311 307 313 307 311 312 302 298 298 298 299 299 299 298 298 298 297 297 296 296 294 292 290 290
309 310 310 310 310 310 311 310 310 310 311 311 311 310 309 306 310 315 310 310 308 304 305 306 306 306 306 307 306 309 312 312 306 309 310 306 299 298 298 297 298 298 297 296 295 295 294 292 291 291 291 291 291 291
306 308 308 309 309 309 310 310 310 310 310 310 307 307 308 309 305 305 305 304 300 302 305 306 303 306 305 307 306 314 303 304 309 310 309 301 298 298 297 297 296 294 293 293 294 293 292 291 291 291 291 291 291 291
304 305 306 309 309 309 310 310 309 310 308 302 302 303 302 297 298 298 299 300 300 302 304 305 305 306 305 306 304 304 307 309 308 308 302 298 298 298 297 296 294 294 294 295 294 293 292 292 292 291 291 291 291 290
301 303 305 305 307 307 308 309 310 309 301 299 298 301 298 300 299 299 300 299 301 302 303 304 302 305 305 307 307 310 309 308 305 302 298 298 297 297 297 294 294 295 295 294 292 292 293 292 292 291 291 290 289 287
300 300 301 302 304 305 304 303 300 298 298 298 298 298 299 299 298 298 299 299 300 301 301 301 307 305 302 305 305 304 305 303 299 298 298 297 297 297 296 296 295 294 293 293 293 293 292 291 291 290 289 288 286 285
296 297 299 300 300 300 299 298 297 297 297 296 298 297 297 298 298 298 298 299 300 299 300 301 299 303 305 305 304 301 298 298 298 297 297 297 297 296 295 295 293 293 293 293 292 291 290 289 288 287 286 285 284 283
291 292 296 298 299 297 297 296 296 296 295 296 297 297 297 297 297 297 297 297 298 298 298 299 302 303 303 301 298 297 297 297 298 297 297 297 296 295 295 293 293 293 292 291 290 289 288 287 286 284 283 283 282 281
291 291 292 293 295 296 296 295 295 295 296 295 295 295 295 295 296 296 297 297 297 299 299 300 299 297 297 295 296 297 297 297 297 296 296 295 295 294 293 293 292 292 291 289 288 287 286 284 283 282 281 280 279 278
292 291 292 292 293 295 294 294 294 294 294 294 294 294 295 294 294 294 295 297 297 298 298 294 294 295 295 295 296 296 296 296 296 296 295 292 292 292 291 291 291 289 288 287 286 284 283 282 281 280 279 278 278 277
291 291 291 291 292 293 293 293 293 293 294 294 295 295 296 296 295 294 294 296 296 294 293 293 294 294 293 294 295 296 296 297 296 296 295 293 291 290 289 288 287 287 286 284 283 282 280 279 278 278 277 277 277 276
291 290 290 291 291 291 291 292 294 292 295 294 294 295 295 295 293 293 295 294 292 289 290 291 292 292 292 290 290 290 291 292 293 291 289 289 289 287 286 286 285 283 282 281 279 278 278 277 277 277 276 276 276 275
290 290 290 291 290 290 290 291 291 292 293 293 294 294 293 293 291 293 293 290 287 286 288 288 288 288 287 287 288 287 287 288 289 288 287 286 286 285 284 283 282 280 279 278 277 277 276 276 276 275 275 275 274 274
291 289 290 289 289 289 290 290 291 292 293 292 293 294 292 290 293 292 290 286 286 284 284 286 287 286 285 284 284 284 285 286 287 287 285 284 283 282 281 279 278 278 277 277 276 276 275 275 275 274 274 273 273 272
291 289 290 290 290 291 290 292 291 292 292 292 292 290 290 292 291 289 286 283 283 283 284 284 284 285 285 284 284 284 283 283 282 283 282 281 280 278 277 276 276 276 276 275 275 275 275 274 274 273 273 271 271 272
290 290 289 289 289 289 291 289 290 291 292 293 292 292 292 292 289 285 282 281 281 282 283 283 284 283 283 282 282 282 281 281 281 280 279 277 277 276 276 275 275 274 274 274 274 273 273 272 272 272 271 271 270 271
289 290 290 289 290 289 291 291 291 291 292 290 291 290 290 289 287 280 278 280 281 281 281 282 282 281 281 280 280 279 279 278 277 276 276 276 276 275 275 274 273 273 272 272 272 271 271 271 271 271 271 270 270 270
290 289 289 288 289 289 289 290 290 289 287 288 290 287 282 277 278 278 279 279 279 279 280 279 279 279 279 278 277 276 276 276 275 275 274 274 273 273 272 272 271 271 271 271 270 270 271 270 270 270 270 270 269 269
289 289 289 286 288 289 288 287 289 288 287 286 284 281 278 276 277 278 278 278 278 278 278 278 278 277 275 275 275 275 275 275 274 273 273 272 271 271 271 270 270 271 271 271 271 270 270 270 269 269 269 269 269 268
289 289 289 288 289 287 287 287 287 287 286 284 283 280 276 275 275 276 276 276 277 277 276 276 275 274 274 274 273 273 273 273 272 271 271 270 270 270 270 270 270 270 270 270 270 270 269 269 269 269 268 268 268 268
287 286 286 288 288 286 286 286 286 285 283 281 278 279 276 275 274 274 274 274 275 275 274 274 273 273 273 273 273 272 272 271 271 270 270 270 270 270 270 270 270 269 269 269 269 269 269 268 268 268 268 267 267 267
285 285 284 285 285 285 284 283 281 282 281 279 276 276 276 275 274 273 273 273 273 273 272 273 273 273 272 272 272 271 271 270 270 269 269 270 270 270 270 269 269 269 269 269 268 268 268 268 267 267 267 266 266 266
Wind_Speed
31 30 26 26 34 34 26 34 32 32 35 37 38 39 41 46 43 25 24 17 14 5 7 12 11 10 10 11 6 12 7 3 2 2 2 3 2 4 3 2 4 5 6 3 2 3 4 6 5 3 4 5 6 8
21 30 34 31 30 33 32 30 31 33 35 35 36 38 41 46 39 24 23 18 14 6 6 11 14 16 17 14 12 20 1 8 9 3 1 3 2 1 1 2 3 3 3 1 6 1 3 8 7 5 6 10 11 11
34 38 38 35 33 29 28 29 29 30 30 32 34 38 42 49 39 23 17 14 9 8 7 7 5 11 13 15 16 9 6 9 8 7 7 2 3 4 4 4 3 4 5 3 2 2 8 9 11 13 12 14 15 14
36 33 31 31 30 29 27 26 26 26 28 30 34 37 42 48 43 19 14 12 12 9 6 3 9 8 9 14 15 12 13 17 17 8 4 3 3 4 3 0 2 1 8 4 5 12 9 7 8 7 9 11 13 13
34 33 32 31 30 29 27 24 22 23 26 29 33 37 42 44 40 19 17 10 16 3 5 7 11 6 8 10 10 10 16 18 10 5 3 2 5 4 2 0 3 7 3 4 5 10 6 10 9 14 14 13 11 11
33 31 30 29 27 26 24 22 19 22 25 29 33 37 38 43 31 26 11 9 12 12 6 4 5 5 11 13 16 18 15 10 5 5 4 4 3 4 4 4 5 4 6 7 7 15 15 14 8 10 7 9 8 7
32 31 29 28 28 25 23 21 19 20 29 31 36 40 45 35 31 30 11 12 16 12 5 4 3 4 9 11 9 8 8 5 4 5 4 4 3 6 3 4 5 9 10 8 7 9 2 10 5 8 8 10 11 14
30 29 28 27 27 26 26 23 24 28 30 34 36 37 35 32 29 20 11 16 15 6 5 4 2 3 5 3 3 3 3 4 6 4 4 3 4 1 3 5 8 11 11 1 12 7 5 6 9 11 11 11 15 20
30 29 27 26 25 25 21 23 29 33 34 33 30 29 27 23 13 14 18 13 9 4 5 3 5 4 3 4 4 3 3 3 2 2 2 4 2 4 2 6 8 9 8 6 6 9 10 13 14 16 19 21 22 19
25 29 29 23 20 23 19 18 25 24 24 26 25 12 5 6 23 17 4 3 3 6 6 4 2 3 2 3 3 3 3 2 2 2 5 2 2 4 3 2 4 6 8 7 7 10 13 19 21 18 19 18 15 11
16 15 17 22 23 17 15 14 20 18 19 17 6 5 16 14 6 4 5 6 5 3 5 4 3 4 3 2 2 2 2 1 3 2 3 3 2 4 5 6 7 5 7 11 12 17 18 19 18 16 12 8 5 1
16 17 17 17 13 11 11 10 14 16 6 9 15 17 7 4 4 6 3 2 2 2 2 2 3 5 4 4 4 3 2 1 3 4 2 2 3 10 11 11 12 13 16 19 19 19 15 11 8 5 3 4 7 7
14 14 15 15 15 15 10 8 11 14 22 15 6 4 6 7 5 2 5 2 2 1 2 3 2 3 3 4 5 2 3 2 4 2 2 2 14 16 17 17 16 14 14 14 12 11 8 5 4 4 6 7 8 9
20 16 15 17 17 15 15 13 15 14 8 5 6 5 3 2 4 3 2 3 3 4 9 9 5 2 2 3 1 3 2 2 3 4 3 4 17 20 18 13 13 11 11 10 8 6 5 5 6 6 7 7 8 8
15 15 13 15 13 12 11 11 9 10 7 6 6 4 4 3 6 4 5 5 5 6 6 6 5 2 2 3 2 3 3 3 3 0 2 13 19 21 17 15 12 10 6 3 3 3 4 4 4 4 5 7 8 10
14 12 14 15 15 13 8 5 6 10 8 6 8 3 5 5 4 6 10 10 5 5 6 4 2 2 2 2 3 2 2 2 2 3 12 18 20 18 18 12 9 6 3 2 3 3 3 2 1 2 4 7 12 16
19 21 15 13 11 11 11 12 8 9 6 5 5 10 10 11 7 5 6 5 6 4 2 1 1 3 2 2 3 1 0 2 8 13 16 15 18 18 16 13 9 5 5 5 4 4 3 2 2 5 8 13 17 18
20 15 13 13 14 15 14 10 8 7 7 9 5 7 13 10 11 11 11 10 5 3 2 2 2 1 1 2 2 2 3 7 12 16 15 16 16 14 12 6 7 7 6 6 5 4 2 3 6 10 14 17 17 18
18 13 8 7 5 4 6 8 8 6 7 5 7 9 10 11 14 12 11 10 10 7 4 2 2 2 2 2 1 5 11 11 16 15 15 13 13 12 10 10 9 8 7 5 3 1 4 7 10 12 15 18 20 21
15 13 11 5 3 6 6 7 7 7 4 4 7 8 6 6 7 8 6 6 7 3 4 3 3 3 3 2 2 4 9 13 15 14 11 11 12 12 11 11 10 7 5 2 1 4 6 8 11 14 17 20 22 22
13 13 10 8 18 13 8 5 7 6 5 5 6 5 4 6 6 6 6 4 4 4 3 4 5 5 3 2 2 6 9 13 10 11 13 16 15 14 12 10 8 6 3 1 4 7 9 11 13 16 18 19 19 19
14 11 11 13 9 7 8 9 5 4 3 4 2 2 3 2 3 4 4 3 4 5 5 5 6 6 3 2 5 7 8 10 9 8 11 14 14 12 11 9 6 3 1 3 6 8 10 13 16 17 18 17 17 16
9 11 9 9 6 7 4 6 4 5 2 2 1 1 3 2 3 3 3 4 5 12 9 8 8 6 3 2 3 5 7 7 10 11 13 12 12 11 9 6 3 2 3 5 8 10 12 15 16 16 16 16 16 16
10 7 7 6 8 4 4 5 4 4 3 2 2 2 2 3 3 3 3 5 10 13 12 8 5 4 5 5 7 9 9 10 12 12 10 7 6 5 4 3 2 4 7 9 11 12 14 15 16 16 16 16 16 17
6 10 6 6 6 5 4 3 3 2 2 3 3 2 2 3 2 3 3 5 10 13 12 9 6 7 9 10 9 8 7 6 6 4 7 6 5 4 3 5 7 9 10 11 12 13 14 15 16 16 16 16 17 17
6 9 5 4 3 3 2 2 1 3 2 2 2 2 2 2 2 3 2 6 7 10 11 10 8 7 8 7 6 5 5 5 5 4 6 5 4 3 4 7 9 12 13 14 15 15 15 16 16 16 16 15 16 18
4 5 5 5 3 3 2 2 1 0 1 1 1 0 1 2 2 3 2 5 4 6 8 8 7 6 6 6 6 6 5 6 6 4 3 3 5 7 9 11 12 14 15 16 16 16 16 16 17 16 16 16 16 18
4 4 2 3 3 3 2 2 2 2 2 3 2 1 1 2 2 2 2 3 4 4 4 5 6 6 5 5 5 5 4 4 4 4 5 7 10 12 13 14 14 14 14 15 15 16 17 17 17 16 16 17 17 17
3 4 1 3 3 3 3 3 2 2 4 2 1 2 3 3 4 5 4 4 2 1 3 3 3 4 4 4 4 3 3 4 5 7 8 9 11 13 14 14 14 15 15 15 15 16 16 16 16 16 16 16 16 16
4 6 2 2 2 1 2 2 2 3 3 3 4 4 4 4 4 5 4 3 2 1 1 2 2 1 2 2 3 4 5 7 9 10 11 11 13 14 14 15 15 16 16 15 14 14 14 14 15 15 15 15 15 15
3 3 1 2 1 1 1 3 2 3 3 2 3 3 5 5 6 4 3 1 0 1 1 2 2 2 3 3 5 7 9 11 13 14 14 14 14 14 14 15 16 16 16 16 15 15 15 14 14 14 14 14 14 14
4 3 3 2 1 3 5 1 1 2 1 2 2 3 4 3 3 1 0 1 2 2 2 2 2 3 5 7 10 12 13 14 16 16 15 15 15 15 15 16 16 15 16 16 15 15 15 14 14 14 13 13 13 13
2 3 4 3 3 2 3 5 2 1 2 3 3 3 2 2 3 2 2 2 3 3 3 3 4 7 9 11 14 15 17 18 17 17 16 16 16 15 16 16 16 16 15 15 15 14 14 13 13 12 12 12 13 13
Wind_Direction
183 187 181 164 174 173 151 163 167 170 173 175 178 179 180 178 171 173 175 182 181 136 162 182 176 158 162 177 148 143 136 184 131 162 172 167 158 186 200 148 186 185 168 185 139 208 269 164 148 228 5 335 319 307
158 150 156 161 145 150 157 160 166 171 174 175 177 178 179 176 168 159 162 175 179 137 156 183 189 186 183 185 145 165 148 152 166 121 122 114 141 89 153 209 184 231 229 236 217 251 122 195 277 288 299 296 295 295
135 122 131 144 144 145 152 159 164 167 171 175 176 177 178 175 167 159 164 164 154 119 113 135 136 162 181 183 179 147 190 166 167 144 140 124 135 161 164 221 183 215 189 234 250 194 249 257 271 280 281 282 295 287
129 133 133 136 139 141 143 149 156 162 168 173 174 175 175 176 174 166 169 182 183 144 128 124 148 146 159 168 172 180 189 170 158 130 108 136 130 209 182 60 226 38 168 207 250 280 283 276 290 299 308 305 303 300
121 124 128 130 131 134 136 140 148 156 161 165 168 169 171 175 173 180 187 193 198 181 132 127 114 105 143 161 176 171 167 156 145 116 110 130 124 138 78 242 246 192 207 208 276 343 316 310 331 323 313 318 317 314
114 116 120 125 128 128 128 128 137 149 153 156 160 164 167 160 166 178 177 247 238 184 129 129 111 101 118 130 137 140 150 145 128 120 116 115 154 176 156 200 71 39 349 338 294 305 297 302 326 0 5 359 0 24
111 113 116 118 119 120 121 119 108 128 142 144 150 154 157 162 164 158 202 183 193 182 122 109 109 128 131 129 123 120 129 126 109 109 81 121 138 181 164 211 19 350 340 352 6 345 90 21 23 30 47 61 69 79
106 105 104 105 106 113 108 111 103 101 115 136 148 157 165 160 153 177 212 169 168 144 119 114 89 122 152 101 79 85 95 94 51 102 103 115 113 141 216 45 353 348 344 151 7 30 79 84 75 74 83 94 96 100
102 100 100 100 104 108 107 112 113 113 116 117 122 132 130 143 150 138 127 116 104 131 108 93 137 160 135 93 92 76 79 81 67 116 131 154 146 209 43 348 351 349 348 332 65 79 90 93 93 96 105 104 101 93
115 99 89 95 98 105 108 124 124 128 127 122 125 109 94 111 124 120 79 92 73 37 54 81 89 107 109 123 76 101 58 112 157 118 130 206 101 106 44 39 34 22 11 155 113 90 105 103 109 105 101 94 87 84
118 126 137 116 98 120 122 113 127 132 136 129 113 79 126 119 110 50 56 45 12 50 38 77 98 122 94 125 115 41 121 96 165 148 222 164 176 152 123 111 93 63 78 97 112 119 114 109 107 100 95 95 105 50
127 134 144 153 146 109 94 124 138 155 147 106 113 118 116 85 72 75 47 10 35 120 63 95 96 90 95 105 102 99 104 130 172 128 195 220 117 139 138 125 111 104 104 103 103 105 102 99 102 110 71 19 10 3
114 122 130 134 147 156 153 100 107 114 114 99 83 64 27 8 56 116 159 114 119 116 110 121 75 82 88 87 84 120 152 146 131 182 224 51 142 146 140 127 121 118 113 108 105 106 100 81 61 45 41 37 33 27
80 107 119 124 124 130 142 152 147 146 123 60 44 63 30 60 52 35 32 64 96 113 118 110 81 84 88 84 107 130 72 132 202 216 200 142 158 157 149 138 133 128 121 113 109 100 78 75 68 53 39 33 23 10
88 85 86 111 115 125 138 127 112 144 77 68 42 60 62 86 66 69 89 91 90 119 117 100 78 79 46 98 37 115 163 224 227 157 118 153 162 161 153 144 148 141 125 109 107 87 81 82 77 61 36 13 357 344
100 122 109 101 96 96 97 118 106 72 55 55 49 72 106 89 52 61 78 75 93 108 96 79 89 100 79 91 172 187 194 218 148 136 152 158 161 164 157 152 152 159 169 161 130 121 110 115 70 10 344 333 337 337
91 82 91 93 103 111 104 101 77 60 61 53 40 56 80 79 70 60 65 56 81 70 67 83 151 64 130 135 156 195 205 75 146 151 156 159 161 159 162 158 156 191 176 171 178 176 184 211 287 306 327 339 340 340
80 82 95 103 106 97 83 56 76 71 67 50 65 42 64 77 78 65 56 47 53 58 37 62 108 125 109 132 133 125 105 130 160 156 155 153 153 153 151 163 176 176 186 188 189 198 244 303 336 343 339 339 345 341
63 67 94 118 124 75 61 49 55 83 65 67 63 69 74 77 74 72 65 48 40 63 97 74 74 57 65 59 62 148 155 149 151 156 160 166 173 177 179 179 186 193 190 187 196 263 335 336 338 339 342 343 342 338
52 56 68 100 129 81 72 52 62 76 69 61 53 49 60 58 60 47 46 35 22 37 51 41 37 15 5 6 116 135 180 177 170 155 154 162 170 175 177 186 187 184 181 197 291 327 333 331 336 341 341 339 338 337
59 51 58 73 61 64 79 59 66 78 84 76 58 62 60 45 42 29 20 25 30 31 64 51 25 352 348 52 130 167 177 174 175 189 187 175 174 179 180 174 176 167 174 228 312 324 334 337 338 336 336 336 335 337
49 47 58 50 64 66 66 44 81 87 76 98 73 39 67 53 42 28 16 46 56 35 26 16 9 356 283 201 157 149 158 178 191 196 189 184 171 170 165 159 156 164 286 329 331 335 334 333 333 333 333 332 334 335
57 55 50 44 72 58 48 38 58 29 70 59 35 80 63 55 25 30 68 52 61 6 0 343 338 338 279 197 150 143 147 168 166 161 164 162 158 152 145 138 120 53 350 337 335 333 331 331 329 329 329 329 330 333
42 48 34 44 48 72 57 44 43 35 37 32 35 63 49 18 3 62 75 58 3 4 21 21 19 66 95 102 94 92 94 118 125 123 116 119 124 116 101 71 28 354 347 340 336 332 328 327 328 326 325 327 329 331
66 18 24 41 38 63 51 46 32 51 57 29 3 60 44 356 52 55 57 18 10 20 30 37 58 84 94 92 94 96 96 90 93 117 126 122 105 74 36 1 346 340 336 332 328 328 328 326 324 324 324 325 327 331
70 26 39 33 44 57 60 84 64 27 19 15 36 13 8 38 62 68 65 7 14 32 44 50 53 79 89 91 94 97 95 97 91 94 107 89 70 26 358 346 340 327 330 328 326 323 320 319 321 322 324 326 326 330
66 52 37 40 60 77 97 88 75 31 65 44 58 97 183 116 110 99 99 38 56 58 60 60 61 66 77 81 85 93 96 94 96 90 65 19 351 345 340 336 331 325 323 321 319 318 319 322 324 324 324 325 326 327
64 45 50 2 70 46 62 62 46 41 35 1 300 34 24 27 91 113 116 114 103 80 47 31 35 53 67 78 90 92 84 69 41 20 354 342 337 331 327 326 323 321 321 320 321 322 323 323 322 322 323 325 325 325
57 10 87 51 71 59 48 45 57 37 350 330 0 104 106 93 146 157 164 171 171 4 340 355 21 32 42 58 62 54 35 21 9 348 335 326 322 318 320 321 324 327 328 327 324 322 321 321 321 322 323 323 322 323
21 23 43 52 63 71 78 47 16 344 0 78 113 114 107 114 130 155 162 172 187 218 311 339 352 42 58 46 24 8 353 340 332 330 328 323 322 322 324 327 327 326 327 327 327 325 323 322 321 321 320 321 322 323
4 3 31 25 92 120 257 313 282 240 206 141 121 124 128 141 141 143 149 163 263 335 21 62 74 67 52 32 7 349 335 333 333 333 330 326 323 322 322 324 325 326 327 327 327 326 326 324 323 323 324 324 324 325
16 40 1 332 58 313 316 305 229 174 138 98 92 101 121 125 118 147 57 42 39 67 78 77 73 34 1 349 345 340 335 332 330 328 325 324 321 319 321 323 323 323 323 323 323 322 322 322 322 323 325 326 327 328
13 21 356 325 318 351 337 353 27 80 82 75 68 90 103 100 109 139 112 78 64 87 85 52 13 353 342 336 336 334 333 330 326 322 321 321 319 318 321 321 320 319 319 317 317 317 318 319 320 323 326 328 329 330